Weather History for CWPE - February, 2013

Change the Weather History Date:

Thursday, February 21, 2013

  Actual Average Record
Temperature  
Mean Temperature 32 °F -  
Max Temperature 36 °F - - ()
Min Temperature 28 °F - - ()
Degree Days  
Heating Degree Days 33    
Moisture  
Dew Point 26 °F    
Average Humidity 76    
Maximum Humidity 89    
Minimum Humidity 64    
Precipitation  
Precipitation 0.00 in - - ()
Sea Level Pressure  
Sea Level Pressure 29.62 in    
Wind  
Wind Speed 7 mph ()    
Max Wind Speed 12 mph    
Max Gust Speed 25 mph    
T = Trace of Precipitation, MM = Missing Value Source: Averaged Metar Reports

Daily Weather History Graph

Daily Weather History Graph

Search for Another Location

Airport or City:

Trip Planner

Search our weather history database for the weather conditions in past years. The results will help you decide how hot, cold, wet, or windy it might be!

Date:

Astronomy

Feb. 21, 2013 Rise Set
Actual Time 7:17 AM AST 6:02 PM AST
Civil Twilight 6:47 AM AST 6:32 PM AST
Nautical Twilight 6:13 AM AST 7:06 PM AST
Astronomical Twilight 5:39 AM AST 7:40 PM AST
Moon 2:06 PM AST (2/21) 4:26 AM AST (2/21)
Length of Visible Light 11h 45m
Length of Day
10h 45m
Waxing Gibbous, 83% of the Moon is Illuminated
Feb 21
Waxing Gibbous
Feb 25
Full
Mar 4
Last Quarter
Mar 11
New
Mar 19
First Quarter

Hourly Weather History & Observations

Time (AST) Temp. Windchill Dew Point Humidity Pressure Visibility Wind Dir Wind Speed Gust Speed Precip Events Conditions
12:00 AM 31.5 °F 24.9 °F 25.3 °F 78% 29.47 in - WNW 6.9 mph 18.4 mph N/A   Unknown
1:00 AM 32.0 °F 25.6 °F 24.4 °F 74% 29.48 in - WNW 6.9 mph - N/A   Unknown
2:00 AM 31 °F - 24 °F 65% 29.49 in - WNW 8.1 mph - -  
2:00 AM 31.3 °F 23.9 °F 23.7 °F 74% 29.49 in - WNW 8.1 mph - N/A   Unknown
3:00 AM 30.2 °F 23.4 °F 22.6 °F 73% 29.50 in - WNW 6.9 mph - N/A   Unknown
4:00 AM 29.7 °F 20.7 °F 21.7 °F 72% 29.51 in - WNW 10.4 mph 20.7 mph N/A   Unknown
5:00 AM 29.3 °F 20.8 °F 21.7 °F 73% 29.52 in - WNW 9.2 mph - N/A   Unknown
6:00 AM 28.6 °F 19.9 °F 21.6 °F 75% 29.54 in - WNW 9.2 mph 19.6 mph N/A   Unknown
8:00 AM 29 °F - 23 °F 69% 29.57 in - WNW 8.1 mph - -  
8:00 AM 29.5 °F 21.8 °F 22.8 °F 76% 29.57 in - WNW 8.1 mph - N/A   Unknown
9:00 AM 30.2 °F 21.9 °F 23.4 °F 76% 29.58 in - WNW 9.2 mph 20.7 mph N/A   Unknown
10:00 AM 31.3 °F 23.9 °F 23.7 °F 74% 29.60 in - WNW 8.1 mph - N/A   Unknown
11:00 AM 31.8 °F 24.6 °F 23.7 °F 72% 29.60 in - West 8.1 mph - N/A   Unknown
12:00 PM 31.5 °F 24.9 °F 24.6 °F 76% 29.61 in - West 6.9 mph - N/A   Unknown
1:00 PM 33.4 °F 26.6 °F 24.6 °F 70% 29.60 in - West 8.1 mph - N/A   Unknown
2:00 PM 34 °F - 26 °F 64% 29.60 in - West 6.9 mph - -  
2:00 PM 34.0 °F 28.0 °F 26.2 °F 73% 29.60 in - West 6.9 mph - N/A   Unknown
3:00 PM 34.3 °F 29.2 °F 27.0 °F 74% 29.61 in - WNW 5.8 mph - N/A   Unknown
4:00 PM 35.1 °F 31.0 °F 29.5 °F 80% 29.62 in - NW 4.6 mph - N/A   Unknown
5:00 PM 36.1 °F 29.9 °F 30.7 °F 81% 29.64 in - North 8.1 mph - N/A   Unknown
6:00 PM 33.8 °F 27.7 °F 30.7 °F 89% 29.69 in - North 6.9 mph - N/A   Unknown
7:00 PM 33.6 °F 26.2 °F 29.5 °F 85% 29.73 in - North 9.2 mph 20.7 mph N/A   Unknown
8:00 PM 33 °F - 29 °F 77% 29.78 in - North 11.5 mph - -  
8:00 PM 33.4 °F 24.8 °F 28.6 °F 82% 29.78 in - North 11.5 mph 20.7 mph N/A   Unknown
9:00 PM 33.3 °F 25.7 °F 28.2 °F 82% 29.83 in - North 9.2 mph 21.9 mph N/A   Unknown
10:00 PM 33.3 °F 25.7 °F 27.3 °F 79% 29.88 in - North 9.2 mph 18.4 mph N/A   Unknown
11:00 PM 33.6 °F 25.6 °F 27.1 °F 77% 29.92 in - North 10.4 mph 25.3 mph N/A   Unknown